| time (UTC) | temp C | wind direction | speed KPH | gust KPH | rain 1hr cm | rain 24hr cm | rain mn cm | humidity % | barometer mb |
| 20260906104521 | 11 | 241 | 0.0 | 0.0 | 0.00 | 0.00 | 0.00 | 76 | 1013.7 |
| 20260906103021 | 11 | 341 | 0.0 | 0.0 | 0.00 | 0.00 | 0.00 | 75 | 1014.0 |
| 20260906101521 | 11 | 90 | 0.0 | 0.0 | 0.00 | 0.00 | 0.00 | 76 | 1013.8 |
| 20260906100023 | 10 | 111 | 0.0 | 1.6 | 0.00 | 0.00 | 0.00 | 76 | 1013.7 |
| 20260906094519 | 10 | 94 | 0.0 | 0.0 | 0.00 | 0.00 | 0.00 | 76 | 1013.6 |
| 20260906093033 | 11 | 100 | 0.0 | 1.6 | 0.00 | 0.00 | 0.00 | 77 | 1013.6 |
| 20260906091521 | 11 | 86 | 0.0 | 0.0 | 0.00 | 0.00 | 0.00 | 77 | 1013.8 |
| 20260906090016 | 11 | 135 | 0.0 | 0.0 | 0.00 | 0.00 | 0.00 | 77 | 1014.0 |
| 20260906084511 | 11 | 107 | 0.0 | 0.0 | 0.00 | 0.00 | 0.00 | 74 | 1014.1 |
| 20260906083010 | 12 | 125 | 0.0 | 3.2 | 0.00 | 0.00 | 0.00 | 73 | 1014.3 |
| 20260906081512 | 12 | 331 | 0.0 | 8.0 | 0.00 | 0.00 | 0.00 | 70 | 1014.4 |
| 20260906080008 | 12 | 85 | 0.0 | 4.8 | 0.00 | 0.00 | 0.00 | 71 | 1014.4 |
| 20260906074506 | 11 | 86 | 0.0 | 1.6 | 0.00 | 0.00 | 0.00 | 74 | 1014.4 |
| 20260906073003 | 11 | 94 | 1.6 | 4.8 | 0.00 | 0.00 | 0.00 | 73 | 1014.7 |
| 20260906071501 | 12 | 217 | 0.0 | 1.6 | 0.00 | 0.00 | 0.00 | 72 | 1014.7 |
| 20260906070122 | 12 | 61 | 0.0 | 1.6 | 0.00 | 0.00 | 0.00 | 72 | 1014.7 |
| 20260906064556 | 12 | 90 | 3.2 | 4.8 | 0.00 | 0.00 | 0.00 | 73 | 1014.8 |
| 20260906063055 | 11 | 104 | 0.0 | 0.0 | 0.00 | 0.00 | 0.00 | 75 | 1015.1 |
| 20260906061618 | 12 | 90 | 0.0 | 0.0 | 0.00 | 0.00 | 0.00 | 73 | 1015.2 |
| 20260906060054 | 12 | 80 | 0.0 | 3.2 | 0.00 | 0.00 | 0.00 | 71 | 1015.3 |
| 20260906054656 | 12 | 92 | 0.0 | 4.8 | 0.00 | 0.00 | 0.00 | 72 | 1015.3 |
| 20260906053056 | 11 | 93 | 0.0 | 3.2 | 0.00 | 0.00 | 0.00 | 73 | 1015.3 |
| 20260906051553 | 11 | 117 | 0.0 | 8.0 | 0.00 | 0.00 | 0.00 | 71 | 1015.3 |
| 20260906050108 | 11 | 85 | 0.0 | 1.6 | 0.00 | 0.00 | 0.00 | 72 | 1015.4 |
| 20260906044552 | 12 | 102 | 1.6 | 4.8 | 0.00 | 0.00 | 0.00 | 68 | 1015.6 |
| 20260906043105 | 12 | 90 | 0.0 | 3.2 | 0.00 | 0.00 | 0.00 | 69 | 1015.6 |
| 20260906041551 | 11 | 109 | 0.0 | 1.6 | 0.00 | 0.00 | 0.00 | 70 | 1015.4 |
| 20260906040110 | 12 | 102 | 0.0 | 1.6 | 0.00 | 0.00 | 0.00 | 67 | 1015.3 |
| 20260906034550 | 12 | 79 | 0.0 | 4.8 | 0.00 | 0.00 | 0.00 | 65 | 1015.4 |
| 20260906033149 | 13 | 97 | 3.2 | 4.8 | 0.00 | 0.00 | 0.00 | 63 | 1015.5 |
| 20260906031549 | 13 | 107 | 0.0 | 0.0 | 0.00 | 0.00 | 0.00 | 63 | 1015.2 |
| 20260906030048 | 13 | 131 | 0.0 | 4.8 | 0.00 | 0.00 | 0.00 | 63 | 1015.2 |
| 20260906024547 | 13 | 87 | 0.0 | 1.6 | 0.00 | 0.00 | 0.00 | 62 | 1015.1 |
| 20260906023102 | 14 | 122 | 0.0 | 3.2 | 0.00 | 0.00 | 0.00 | 61 | 1015.2 |
| 20260906021547 | 15 | 325 | 0.0 | 0.0 | 0.00 | 0.00 | 0.00 | 59 | 1015.1 |
| 20260906020046 | 15 | 29 | 0.0 | 8.0 | 0.00 | 0.00 | 0.00 | 58 | 1015.0 |
| 20260906014556 | 15 | 66 | 0.0 | 8.0 | 0.00 | 0.00 | 0.00 | 55 | 1015.2 |
| 20260906013045 | 16 | 53 | 1.6 | 9.7 | 0.00 | 0.00 | 0.00 | 54 | 1015.1 |
| 20260906011553 | 16 | 329 | 1.6 | 12.9 | 0.00 | 0.00 | 0.00 | 55 | 1015.1 |
| 20260906010044 | 16 | 348 | 4.8 | 12.9 | 0.00 | 0.00 | 0.00 | 55 | 1015.0 |
| 20260906004543 | 17 | 331 | 4.8 | 14.5 | 0.00 | 0.00 | 0.00 | 53 | 1015.0 |
| 20260906003044 | 17 | 66 | 8.0 | 17.7 | 0.00 | 0.00 | 0.00 | 52 | 1015.0 |
| 20260906001542 | 17 | 95 | 6.4 | 16.1 | 0.00 | 0.00 | 0.00 | 52 | 1015.1 |
| 20260906000043 | 17 | 346 | 11.3 | 17.7 | 0.00 | 0.00 | 0.00 | 52 | 1015.1 |
| 20260905234551 | 17 | 343 | 9.7 | 20.9 | 0.00 | 0.00 | 0.00 | 53 | 1015.1 |
| 20260905233040 | 17 | 67 | 9.7 | 19.3 | 0.00 | 0.00 | 0.00 | 53 | 1015.1 |
| 20260905231540 | 17 | 314 | 6.4 | 17.7 | 0.00 | 0.00 | 0.00 | 53 | 1015.2 |
| 20260905230042 | 17 | 320 | 9.7 | 20.9 | 0.00 | 0.00 | 0.00 | 52 | 1015.2 |
| 20260905224539 | 17 | 331 | 4.8 | 16.1 | 0.00 | 0.00 | 0.00 | 53 | 1015.3 |
| 20260905223038 | 17 | 19 | 6.4 | 17.7 | 0.00 | 0.00 | 0.00 | 53 | 1015.4 |
| 20260905221536 | 17 | 14 | 6.4 | 17.7 | 0.00 | 0.00 | 0.00 | 53 | 1015.5 |
| 20260905220034 | 17 | 328 | 6.4 | 22.5 | 0.00 | 0.00 | 0.00 | 54 | 1015.5 |
| 20260905214531 | 16 | 355 | 6.4 | 19.3 | 0.00 | 0.00 | 0.00 | 55 | 1015.6 |
| 20260905213031 | 16 | 19 | 3.2 | 17.7 | 0.00 | 0.00 | 0.00 | 55 | 1015.7 |
| 20260905211529 | 16 | 61 | 6.4 | 20.9 | 0.00 | 0.00 | 0.00 | 56 | 1015.6 |
| 20260905210030 | 16 | 339 | 4.8 | 20.9 | 0.00 | 0.00 | 0.00 | 57 | 1015.6 |
| 20260905204528 | 15 | 38 | 6.4 | 17.7 | 0.00 | 0.00 | 0.00 | 57 | 1015.8 |
| 20260905203028 | 15 | 305 | 6.4 | 19.3 | 0.00 | 0.00 | 0.00 | 59 | 1016.0 |
| 20260905201527 | 14 | 322 | 8.0 | 16.1 | 0.00 | 0.00 | 0.00 | 59 | 1016.0 |
| 20260905200039 | 15 | 320 | 9.7 | 16.1 | 0.00 | 0.00 | 0.00 | 57 | 1016.1 |
| 20260905194526 | 16 | 319 | 6.4 | 16.1 | 0.00 | 0.00 | 0.00 | 54 | 1016.1 |
| 20260905193025 | 16 | 78 | 4.8 | 17.7 | 0.00 | 0.00 | 0.00 | 55 | 1016.2 |
| 20260905191529 | 16 | 50 | 3.2 | 14.5 | 0.00 | 0.00 | 0.00 | 55 | 1016.2 |
| 20260905190041 | 16 | 327 | 6.4 | 12.9 | 0.00 | 0.00 | 0.00 | 54 | 1016.2 |
| 20260905184522 | 15 | 316 | 4.8 | 14.5 | 0.00 | 0.00 | 0.00 | 55 | 1016.2 |
| 20260905183021 | 15 | 81 | 4.8 | 9.7 | 0.00 | 0.00 | 0.00 | 55 | 1016.3 |
| 20260905181525 | 15 | 322 | 4.8 | 12.9 | 0.00 | 0.00 | 0.00 | 57 | 1016.4 |
| 20260905180022 | 15 | 341 | 0.0 | 8.0 | 0.00 | 0.00 | 0.00 | 55 | 1016.5 |
| 20260905174538 | 17 | 75 | 0.0 | 3.2 | 0.00 | 0.00 | 0.00 | 49 | 1016.5 |
| 20260905173036 | 14 | 40 | 3.2 | 8.0 | 0.00 | 0.00 | 0.00 | 63 | 1016.6 |
| 20260905171537 | 13 | 287 | 1.6 | 8.0 | 0.00 | 0.00 | 0.00 | 64 | 1016.7 |
| 20260905170035 | 13 | 31 | 0.0 | 4.8 | 0.00 | 0.00 | 0.00 | 65 | 1016.7 |
| 20260905164535 | 12 | 47 | 1.6 | 8.0 | 0.00 | 0.00 | 0.00 | 69 | 1016.8 |
| 20260905163028 | 12 | 45 | 3.2 | 9.7 | 0.00 | 0.00 | 0.00 | 69 | 1016.7 |
| 20260905161527 | 12 | 284 | 1.6 | 9.7 | 0.00 | 0.00 | 0.00 | 68 | 1016.5 |
| 20260905160026 | 12 | 313 | 1.6 | 4.8 | 0.00 | 0.00 | 0.00 | 70 | 1016.5 |
| 20260905154524 | 12 | 317 | 3.2 | 8.0 | 0.00 | 0.00 | 0.00 | 71 | 1016.7 |
| 20260905153027 | 12 | 321 | 0.0 | 3.2 | 0.00 | 0.00 | 0.00 | 71 | 1016.4 |
| 20260905151519 | 11 | 63 | 1.6 | 3.2 | 0.00 | 0.00 | 0.00 | 73 | 1016.3 |
| 20260905150019 | 11 | 71 | 0.0 | 1.6 | 0.00 | 0.00 | 0.00 | 78 | 1016.4 |
| 20260905144511 | 10 | 70 | 0.0 | 0.0 | 0.00 | 0.00 | 0.00 | 82 | 1016.3 |
| 20260905143018 | 10 | 70 | 0.0 | 1.6 | 0.00 | 0.00 | 0.00 | 83 | 1016.2 |
| 20260905141505 | 8 | 70 | 1.6 | 3.2 | 0.00 | 0.00 | 0.00 | 85 | 1016.1 |
| 20260905140004 | 7 | 84 | 3.2 | 3.2 | 0.00 | 0.00 | 0.00 | 87 | 1015.9 |
| 20260905134502 | -17 | 0.0 | 0.0 | 0.00 | 0.00 | 0.00 | 1015.7 | ||
| 20260905133105 | -17 | 0.0 | 0.0 | 0.00 | 0.00 | 0.00 | 1015.7 | ||
| 20260905131605 | -17 | 0.0 | 0.0 | 0.00 | 0.00 | 0.00 | 1015.6 | ||
| 20260905130050 | -17 | 0.0 | 0.0 | 0.00 | 0.00 | 0.00 | 1015.5 | ||
| 20260905124543 | -17 | 0.0 | 0.0 | 0.00 | 0.00 | 0.00 | 1015.7 | ||
| 20260905123039 | -17 | 0.0 | 0.0 | 0.00 | 0.00 | 0.00 | 1015.7 | ||
| 20260905121537 | -17 | 0.0 | 0.0 | 0.00 | 0.00 | 0.00 | 1015.8 | ||
| 20260905120031 | -17 | 0.0 | 0.0 | 0.00 | 0.00 | 0.00 | 1015.8 | ||
| 20260905114529 | 8 | 119 | 0.0 | 4.8 | 0.00 | 0.00 | 0.00 | 83 | 1015.8 |
| 20260905113027 | 8 | 63 | 1.6 | 4.8 | 0.00 | 0.00 | 0.00 | 85 | 1015.8 |
| 20260905111547 | 7 | 71 | 3.2 | 4.8 | 0.00 | 0.00 | 0.00 | 84 | 1015.7 |
| 20260905110027 | 7 | 73 | 3.2 | 3.2 | 0.00 | 0.00 | 0.00 | 84 | 1015.7 |